Powrót do katalogu

STARLINK-34228

AktywnyŁącznośćVLEO
NORAD 64171·PAYLOAD·🇺🇸 United States

Wystrzelony May 28, 2025 z Cape Canaveral Space Force Station

Loading…

Następne Przeloty (najbliższe 24 godziny)

TLE

ŚwieżeSource: CelesTrak SupGP

Epoka: Sep 14, 2026, 23:11 UTC

1 64171C 25113B   26257.96645833  .00048298  00000+0  15533-2 0  2573
2 64171  53.1568 290.1710 0001150  99.4995 112.0413 15.31673581    14

Śledź STARLINK-34228 w czasie rzeczywistym z AllMySat

Download on the App Store